DELTA 1 DEB

Satellite information

Favourite Embed

Satellite Type and Status

DEBRISIN ORBIT

Key statistics

Satellite DELTA 1 DEB at a glance.

Uptime

19036

Days in orbit

Revolutions

≈ 12.5

Per day

Orbit

SSO

Sun Synchronous Orbit

Inclination

101.8

Latest

Satellite identification and parameters

Extended collection of information and parameters for DELTA 1 DEB.

Object identification

Identified? True

Debris? True

Object name: DELTA 1 DEB

International designator: 1973-086CY

Object number (NORAD): 7134

Object ID (CCSDS): 7134

Country: UNITED STATES OF AMERICA (US)

Current information (Y/N): Y

RCS size: SMALL

Orbital parameters

Period: 114.931 minutes

Inclination: 101.8433 deg

SMA: 7830.4 km

Apoapsis: 1466.512 km

Periapsis: 1438.019 km

RAAN: 123.6295 deg

Eccentricy: 0.00181936

Argument of periapsis: 245.9794 deg

Mean anomaly: 232.9251 deg

Mean motion: 12.52930021 rev/day

Mean motion (dot): -0.00000048 rev/day2

B* drag term: -0.00001412965 1/REarth

Two-line elements (TLE)

Creation date: Dec. 19, 2025, 2:08 a.m.

Reference frame: TEME

Reference center: EARTH

Epoch: Dec. 18, 2025, 10:20 p.m. UTC

TLE line 0: 0 DELTA 1 DEB

TLE line 1: 1 07134U 73086CY 25352.93086299 -.00000048 00000-0 -14130-4 0 9999

TLE line 2: 2 07134 101.8433 123.6295 0018194 245.9794 232.9251 12.52930021377497

Live tracking on map

Real-time ground track for satellite DELTA 1 DEB.

In-orbit conjunctions

A list of the most updated potential collisions computed for object DELTA 1 DEB.

Target Orbit TCA Probability of collision Miss distance Type
COSMOS 1563 LEO 2024-11-01 18:20:21 0.0002700553 947.0 (m) PAYLOAD
COSMOS 2127 LEO 2024-08-30 02:52:37 0.0002824575 194.0 (m) PAYLOAD

Associated space launch

Meteorological satellite using radiometric imaging

DELTA 1 DEB was lifted into orbit during the mission ‘Delta 0300 | NOAA 3’, on board a Delta 0300 space rocket.

The launch took place on Nov. 6, 1973, 5:02 p.m. from Space Launch Complex 2W.

For more information about the launch, click the button.

Launch to space Delta 0300 | NOAA 3
Delta 0300 | NOAA 3

Agency: N/A

Status: Launch Successful

Launch date: Nov. 6, 1973, 5:02 p.m. UTC

Rocket: Delta 0300

Launch pad: Space Launch Complex 2W

Location: Vandenberg SFB, CA, USA

...

Latest news about this satellite

There are no fresh news available about this satellite. Check back as we update our databases every day.


Newsletter sign-up

Weekly statistics, charts and insights to help you stay on top of the space industry.